DL9BGG-13 Weather Reports


time (UTC)temp
C
wind
direction
speed
KPH
gust
KPH
rain 1hr
cm
rain 24hr
cm
rain mn
cm
humidity
%
barometer
mb
20260905015029 17 270 9.7 0.0 0.00 1.85 0.00 73 1056.7
20260905014919 17 315 11.3 0.0 0.00 1.85 0.00 73 1056.7
20260905014811 17 292 9.7 0.0 0.00 1.85 0.00 73 1056.7
20260905014657 17 315 17.7 0.0 0.00 1.85 0.00 73 1056.7
20260905014537 17 22 3.2 0.0 0.00 1.85 0.00 73 1056.7
20260905014432 17 315 0.0 0.0 0.00 1.85 0.00 72 1056.7
20260905014319 17 292 17.7 0.0 0.00 1.85 0.00 71 1056.7
20260905014214 17 337 8.0 0.0 0.00 1.85 0.00 71 1056.6
20260905014101 17 315 19.3 0.0 0.00 1.85 0.00 71 1056.7
20260905013956 17 315 22.5 0.0 0.00 1.85 0.00 72 1056.7
20260905013851 17 315 22.5 0.0 0.00 1.85 0.00 72 1056.7
20260905013738 17 292 11.3 0.0 0.00 1.85 0.00 72 1056.7
20260905013625 17 315 9.7 0.0 0.00 1.85 0.00 72 1056.6
20260905013513 17 315 3.2 0.0 0.00 1.85 0.00 72 1056.6
20260905013406 17 270 20.9 0.0 0.00 1.85 0.00 73 1056.7
20260905013245 17 292 8.0 0.0 0.00 1.85 0.00 74 1056.5
20260905013132 17 292 14.5 0.0 0.00 1.85 0.00 73 1056.6
20260905013027 17 315 0.0 0.0 0.00 1.85 0.00 73 1056.7
20260905012920 17 337 9.7 0.0 0.00 1.85 0.00 73 1056.6
20260905012808 17 315 6.4 0.0 0.00 1.85 0.00 74 1056.7
20260905012655 17 270 0.0 0.0 0.00 1.85 0.00 74 1056.6
20260905012550 17 292 9.7 0.0 0.00 1.85 0.00 74 1056.6
20260905012438 17 292 6.4 0.0 0.00 1.85 0.00 74 1056.6
20260905012331 17 270 17.7 0.0 0.00 1.85 0.00 74 1056.6
20260905012211 17 270 4.8 0.0 0.00 1.85 0.00 74 1056.7
20260905012106 17 270 24.1 0.0 0.00 1.85 0.00 73 1056.6
20260905011953 17 0 0.0 0.0 0.00 1.85 0.00 73 1056.5
20260905011847 17 0 11.3 0.0 0.00 1.85 0.00 74 1056.6
20260905011735 17 315 9.7 0.0 0.00 1.85 0.00 74 1056.6
20260905011624 17 315 6.4 0.0 0.00 1.85 0.00 74 1056.4
20260905011509 17 292 9.7 0.0 0.00 1.85 0.00 73 1056.5
20260905011355 17 337 16.1 0.0 0.00 1.85 0.00 73 1056.5
20260905011242 17 270 12.9 0.0 0.00 1.85 0.00 73 1056.5
20260905011121 17 315 3.2 0.0 0.00 1.85 0.00 74 1056.5
20260905011007 17 292 20.9 0.0 0.00 1.85 0.00 74 1056.6
20260905010840 17 292 9.7 0.0 0.00 1.85 0.00 74 1056.6
20260905010725 17 315 8.0 0.0 0.00 1.85 0.00 73 1056.6
20260905010614 17 315 17.7 0.0 0.00 1.85 0.00 73 1056.5
20260905010507 17 270 16.1 0.0 0.00 1.85 0.00 73 1056.7
20260905010349 17 270 17.7 0.0 0.00 1.85 0.00 73 1056.5
20260905010243 17 315 19.3 0.0 0.00 1.85 0.00 73 1056.4
20260905010136 17 292 16.1 0.0 0.00 1.85 0.00 74 1056.5
20260905005942 17 292 17.7 0.0 0.00 1.85 0.00 74 1056.6
20260905005821 17 292 14.5 0.0 0.00 1.85 0.00 74 1056.4
20260905005707 17 292 12.9 0.0 0.00 1.85 0.00 73 1056.5
20260905005539 17 315 16.1 0.0 0.00 1.85 0.00 73 1056.5
20260905005417 17 270 20.9 0.0 0.00 1.85 0.00 73 1056.6
20260905005259 17 292 14.5 0.0 0.00 1.85 0.00 73 1056.5
20260905005151 17 315 9.7 0.0 0.00 1.85 0.00 74 1056.4
20260905005037 17 315 22.5 0.0 0.00 1.85 0.00 75 1056.5
20260905004918 17 247 11.3 0.0 0.00 1.85 0.00 75 1056.4
20260905004814 17 315 9.7 0.0 0.00 1.85 0.00 75 1056.4
20260905004658 17 247 8.0 0.0 0.00 1.85 0.00 75 1056.3
20260905004548 17 337 11.3 0.0 0.00 1.85 0.00 74 1056.4
20260905004441 17 0 4.8 0.0 0.00 1.85 0.00 74 1056.4
20260905004335 17 315 19.3 0.0 0.00 1.85 0.00 74 1056.5
20260905004206 17 292 19.3 0.0 0.00 1.85 0.00 75 1056.4
20260905004045 17 315 12.9 0.0 0.00 1.85 0.00 75 1056.3
20260905003926 17 247 6.4 0.0 0.00 1.85 0.00 75 1056.3
20260905003821 17 315 4.8 0.0 0.00 1.85 0.00 75 1056.6
20260905003713 17 337 3.2 0.0 0.00 1.85 0.00 76 1056.4
20260905003600 17 292 0.0 0.0 0.00 1.85 0.00 75 1056.4
20260905003439 17 270 3.2 0.0 0.00 1.85 0.00 75 1056.4
20260905003302 17 292 17.7 0.0 0.00 1.85 0.00 75 1056.5
20260905003141 17 315 4.8 0.0 0.00 1.85 0.00 75 1056.4
20260905003035 17 270 6.4 0.0 0.00 1.85 0.00 75 1056.4
20260905002906 17 292 8.0 0.0 0.00 1.85 0.00 75 1056.3
20260905002753 17 247 12.9 0.0 0.00 1.85 0.00 75 1056.4
20260905002641 17 337 0.0 0.0 0.00 1.85 0.00 75 1056.5
20260905002526 17 315 11.3 0.0 0.00 1.85 0.00 75 1056.4
20260905002359 17 315 8.0 0.0 0.00 1.85 0.00 75 1056.4
20260905002245 17 292 6.4 0.0 0.00 1.85 0.00 75 1056.5
20260905002140 17 337 9.7 0.0 0.00 1.85 0.00 75 1056.5
20260905002026 17 315 22.5 0.0 0.00 1.85 0.00 75 1056.4
20260905001913 17 292 25.7 0.0 0.00 1.85 0.00 75 1056.5
20260905001802 17 270 12.9 0.0 0.00 1.85 0.00 75 1056.5
20260905001654 17 292 8.0 0.0 0.00 1.85 0.00 74 1056.4
20260905001534 17 270 19.3 0.0 0.00 1.85 0.00 74 1056.4
20260905001420 17 337 9.7 0.0 0.00 1.85 0.00 74 1056.5
20260905001259 17 0 9.7 0.0 0.00 1.85 0.00 74 1056.5
20260905001129 17 315 4.8 0.0 0.00 1.85 0.00 75 1056.5
20260905001010 17 292 14.5 0.0 0.00 1.85 0.00 74 1056.5
20260905000906 17 0 6.4 0.0 0.00 1.85 0.00 74 1056.5
20260905000758 17 315 9.7 0.0 0.00 1.85 0.00 75 1056.4
20260905000645 17 315 8.0 0.0 0.00 1.85 0.00 74 1056.5
20260905000534 17 292 14.5 0.0 0.00 1.85 0.00 75 1056.4
20260905000427 17 315 17.7 0.0 0.00 1.85 0.00 75 1056.4
20260905000306 17 270 8.0 0.0 0.00 1.85 0.00 75 1056.4
20260905000136 17 292 16.1 0.0 0.00 1.85 0.00 75 1056.4
20260905000015 17 315 14.5 0.0 0.00 1.85 0.00 75 1056.4
20260904235838 17 315 0.0 0.0 0.00 1.85 0.00 75 1056.4
20260904235725 17 315 9.7 0.0 0.00 1.85 0.00 75 1056.3
20260904235606 17 247 24.1 0.0 0.00 1.85 0.00 75 1056.4
20260904235458 17 315 12.9 0.0 0.00 1.85 0.00 75 1056.4
20260904235346 17 247 16.1 0.0 0.00 1.85 0.00 75 1056.5
20260904235240 17 247 8.0 0.0 0.00 1.85 0.00 75 1056.4
20260904235113 17 292 0.0 0.0 0.00 1.85 0.00 75 1056.5
20260904234958 17 225 0.0 0.0 0.00 1.85 0.00 75 1056.3
20260904234837 17 292 17.7 0.0 0.00 1.85 0.00 75 1056.4
20260904234723 17 270 4.8 0.0 0.00 1.85 0.00 74 1056.5
20260904234610 17 292 3.2 0.0 0.00 1.85 0.00 74 1056.4
20260904234450 17 337 19.3 0.0 0.00 1.85 0.00 73 1056.5
20260904234346 17 0 11.3 0.0 0.00 1.85 0.00 73 1056.4
20260904234231 17 337 3.2 0.0 0.00 1.85 0.00 72 1056.4
20260904234118 17 270 17.7 0.0 0.00 1.85 0.00 72 1056.4
20260904234005 17 270 9.7 0.0 0.00 1.85 0.00 72 1056.4
20260904233853 17 337 9.7 0.0 0.00 1.85 0.00 72 1056.4
20260904233739 17 315 0.0 0.0 0.00 1.85 0.00 72 1056.4
20260904233617 17 270 14.5 0.0 0.00 1.85 0.00 73 1056.4
20260904233504 17 315 8.0 0.0 0.00 1.85 0.00 73 1056.4
20260904233344 17 337 4.8 0.0 0.00 1.85 0.00 72 1056.3
20260904233222 17 292 11.3 0.0 0.00 1.85 0.00 72 1056.2
20260904233118 17 315 16.1 0.0 0.00 1.85 0.00 72 1056.3
20260904233012 17 337 8.0 0.0 0.00 1.85 0.00 73 1056.3
20260904232909 17 315 11.3 0.0 0.00 1.85 0.00 73 1056.3
20260904232802 17 292 4.8 0.0 0.00 1.85 0.00 73 1056.3
20260904232649 17 292 30.6 0.0 0.00 1.85 0.00 74 1056.4
20260904232536 17 337 19.3 0.0 0.00 1.85 0.00 75 1056.2
20260904232430 17 315 11.3 0.0 0.00 1.85 0.00 75 1056.2
20260904232320 17 315 14.5 0.0 0.00 1.85 0.00 75 1056.3
20260904232211 17 292 9.7 0.0 0.00 1.85 0.00 75 1056.2
20260904232052 17 337 11.3 0.0 0.00 1.85 0.00 75 1056.3
20260904231938 17 315 9.7 0.0 0.00 1.85 0.00 75 1056.4
20260904231833 17 315 8.0 0.0 0.00 1.85 0.00 75 1056.3
20260904231721 17 270 0.0 0.0 0.00 1.85 0.00 75 1056.3
20260904231614 17 315 0.0 0.0 0.00 1.85 0.00 75 1056.4
20260904231455 17 315 24.1 0.0 0.00 1.85 0.00 75 1056.3
20260904231347 17 292 20.9 0.0 0.00 1.85 0.00 75 1056.3
20260904231227 17 270 9.7 0.0 0.00 1.85 0.00 75 1056.2
20260904231058 17 292 12.9 0.0 0.00 1.85 0.00 75 1056.3
20260904230954 17 315 24.1 0.0 0.00 1.85 0.00 74 1056.2
20260904230848 17 292 12.9 0.0 0.00 1.85 0.00 74 1056.2
20260904230743 17 292 11.3 0.0 0.00 1.85 0.00 74 1056.2
20260904230621 17 337 0.0 0.0 0.00 1.85 0.00 74 1056.2
20260904230501 17 337 14.5 0.0 0.00 1.85 0.00 74 1056.2
20260904230355 17 292 6.4 0.0 0.00 1.85 0.00 74 1056.2
20260904230234 17 202 11.3 0.0 0.00 1.85 0.00 74 1056.2
20260904230057 17 292 33.8 0.0 0.00 1.85 0.00 74 1056.1
20260904225945 17 22 0.0 0.0 0.00 1.85 0.00 74 1056.2
20260904225838 17 270 0.0 0.0 0.00 1.85 0.00 74 1056.2
20260904225726 17 315 1.6 0.0 0.00 1.85 0.00 74 1056.3
20260904225621 17 337 8.0 0.0 0.00 1.85 0.00 74 1056.2
20260904225507 17 270 22.5 0.0 0.00 1.85 0.00 74 1056.1
20260904225338 17 315 16.1 0.0 0.00 1.85 0.00 73 1056.2
20260904225217 17 292 12.9 0.0 0.00 1.85 0.00 73 1056.3
20260904225106 17 247 6.4 0.0 0.00 1.85 0.00 73 1056.2
20260904224958 17 337 12.9 0.0 0.00 1.85 0.00 73 1056.2
20260904224845 17 292 25.7 0.0 0.00 1.85 0.00 73 1056.2
20260904224723 17 292 16.1 0.0 0.00 1.85 0.00 73 1056.1
20260904224603 17 45 6.4 0.0 0.00 1.85 0.00 73 1056.2
20260904224457 17 315 6.4 0.0 0.00 1.85 0.00 73 1056.1
20260904224347 17 292 12.9 0.0 0.00 1.85 0.00 73 1056.1
20260904224241 17 292 25.7 0.0 0.00 1.85 0.00 72 1056.1
20260904224125 17 315 9.7 0.0 0.00 1.85 0.00 72 1056.1
20260904224005 17 315 14.5 0.0 0.00 1.85 0.00 72 1056.1
20260904223900 17 292 17.7 0.0 0.00 1.85 0.00 72 1056.0
20260904223748 17 270 8.0 0.0 0.00 1.85 0.00 72 1056.1
20260904223641 17 292 4.8 0.0 0.00 1.85 0.00 72 1056.1
20260904223520 17 315 19.3 0.0 0.00 1.85 0.00 73 1056.0
20260904223407 17 315 12.9 0.0 0.00 1.85 0.00 73 1056.0
20260904223246 17 202 0.0 0.0 0.00 1.85 0.00 73 1056.0
20260904223124 17 292 9.7 0.0 0.00 1.85 0.00 73 1056.1
20260904222958 17 270 3.2 0.0 0.00 1.85 0.00 73 1056.0
20260904222850 17 315 17.7 0.0 0.00 1.85 0.00 73 1056.0
20260904222729 17 225 0.0 0.0 0.00 1.85 0.00 72 1056.0
20260904222610 17 315 4.8 0.0 0.00 1.85 0.00 72 1056.0
20260904222502 17 270 19.3 0.0 0.00 1.85 0.00 72 1055.9
20260904222349 17 315 17.7 0.0 0.00 1.85 0.00 72 1056.0
20260904222242 17 315 9.7 0.0 0.00 1.85 0.00 73 1055.9
20260904222113 17 337 0.0 0.0 0.00 1.85 0.00 73 1055.9
20260904222000 17 337 16.1 0.0 0.00 1.85 0.00 74 1055.9
20260904221838 17 292 8.0 0.0 0.00 1.85 0.00 73 1055.9
20260904221717 17 315 9.7 0.0 0.00 1.85 0.00 73 1055.9
20260904221606 17 315 16.1 0.0 0.00 1.85 0.00 73 1055.8
20260904221451 17 292 25.7 0.0 0.00 1.85 0.00 73 1055.9
20260904221330 17 247 9.7 0.0 0.00 1.85 0.00 73 1055.9
20260904221201 17 315 19.3 0.0 0.00 1.85 0.00 73 1055.8
20260904221048 17 22 0.0 0.0 0.00 1.85 0.00 73 1055.9
20260904220934 17 337 24.1 0.0 0.00 1.85 0.00 73 1056.0
20260904220815 17 315 16.1 0.0 0.00 1.85 0.00 73 1055.8
20260904220707 17 315 37.0 0.0 0.00 1.85 0.00 73 1055.9
20260904220555 17 270 12.9 0.0 0.00 1.85 0.00 73 1055.9
20260904220444 17 270 24.1 0.0 0.00 1.85 0.00 73 1055.9
20260904220338 17 202 22.5 0.0 0.00 1.85 0.00 73 1055.9
20260904220232 17 270 9.7 0.0 0.00 1.85 0.00 73 1055.9
20260904220128 17 292 8.0 0.0 0.00 1.85 0.00 74 1056.0
20260904220021 17 67 12.9 0.0 0.00 1.85 0.00 74 1055.9
20260904215900 17 270 9.7 0.0 0.00 1.85 0.00 75 1055.9
20260904215747 17 270 11.3 0.0 0.00 1.85 0.00 75 1055.8
20260904215642 17 337 14.5 0.0 0.00 1.85 0.00 75 1055.9
20260904215513 17 315 19.3 0.0 0.00 1.85 0.00 75 1055.8
20260904215351 17 315 16.1 0.0 0.00 1.85 0.00 75 1055.9
20260904215231 17 292 6.4 0.0 0.00 1.85 0.00 74 1055.9
20260904215118 17 315 16.1 0.0 0.00 1.85 0.00 73 1055.8
20260904215012 17 315 9.7 0.0 0.00 1.85 0.00 73 1055.9
20260904214907 17 315 0.0 0.0 0.00 1.85 0.00 73 1055.8
20260904214738 17 315 9.7 0.0 0.00 1.85 0.00 73 1055.8
20260904214624 17 315 14.5 0.0 0.00 1.85 0.00 73 1055.8
20260904214511 17 292 9.7 0.0 0.00 1.85 0.00 73 1055.8
20260904214400 17 315 14.5 0.0 0.00 1.85 0.00 73 1055.8
20260904214253 17 292 19.3 0.0 0.00 1.85 0.00 73 1055.8
20260904214133 17 292 20.9 0.0 0.00 1.85 0.00 73 1055.7
20260904214027 17 315 9.7 0.0 0.00 1.85 0.00 73 1055.7
20260904213859 17 292 16.1 0.0 0.00 1.85 0.00 73 1055.7
20260904213752 17 315 12.9 0.0 0.00 1.85 0.00 73 1055.8
20260904213637 17 270 3.2 0.0 0.00 1.85 0.00 73 1055.7
20260904213518 17 315 12.9 0.0 0.00 1.85 0.00 73 1055.7
20260904213413 17 270 12.9 0.0 0.00 1.85 0.00 73 1055.6
20260904213306 17 292 24.1 0.0 0.00 1.85 0.00 73 1055.7
20260904213153 17 292 14.5 0.0 0.00 1.85 0.00 73 1055.7
20260904213040 17 247 11.3 0.0 0.00 1.85 0.00 73 1055.7
20260904212935 17 315 8.0 0.0 0.00 1.85 0.00 74 1055.7
20260904212823 17 292 16.1 0.0 0.00 1.85 0.00 74 1055.7
20260904212716 17 292 9.7 0.0 0.00 1.85 0.00 74 1055.7
20260904212603 17 292 12.9 0.0 0.00 1.85 0.00 75 1055.6
20260904212450 17 315 32.2 0.0 0.00 1.85 0.00 75 1055.7
20260904212329 17 315 17.7 0.0 0.00 1.85 0.00 76 1055.7
20260904212217 17 292 12.9 0.0 0.00 1.85 0.00 76 1055.6
20260904212114 17 292 12.9 0.0 0.00 1.85 0.00 75 1055.7
20260904212008 17 0 17.7 0.0 0.00 1.85 0.00 75 1055.6
20260904211855 17 315 9.7 0.0 0.00 1.85 0.00 75 1055.7
20260904211749 17 315 9.7 0.0 0.00 1.85 0.00 75 1055.7
20260904211643 17 0 4.8 0.0 0.00 1.85 0.00 75 1055.7
20260904211530 17 315 0.0 0.0 0.00 1.85 0.00 74 1055.6
20260904211416 17 337 25.7 0.0 0.00 1.85 0.00 74 1055.5
20260904211255 17 112 0.0 0.0 0.00 1.85 0.00 73 1055.6
20260904211144 17 292 14.5 0.0 0.00 1.85 0.00 73 1055.5
20260904211037 17 0 6.4 0.0 0.00 1.85 0.00 73 1055.6
20260904210911 17 270 12.9 0.0 0.00 1.85 0.00 73 1055.6
20260904210804 17 0 6.4 0.0 0.00 1.85 0.00 73 1055.5
20260904210650 17 315 20.9 0.0 0.00 1.85 0.00 73 1055.6
20260904210531 17 315 9.7 0.0 0.00 1.85 0.00 73 1055.5
20260904210425 17 22 6.4 0.0 0.00 1.85 0.00 73 1055.5
20260904210310 17 337 17.7 0.0 0.00 1.85 0.00 74 1055.5
20260904210158 17 292 16.1 0.0 0.00 1.85 0.00 74 1055.5
20260904210055 17 0 6.4 0.0 0.00 1.85 0.00 74 1055.5
20260904205948 17 292 12.9 0.0 0.00 1.85 0.00 74 1055.5
20260904205842 17 292 12.9 0.0 0.00 1.85 0.00 74 1055.5
20260904205724 17 337 3.2 0.0 0.00 1.85 0.00 74 1055.4
20260904205608 17 270 6.4 0.0 0.00 1.85 0.00 74 1055.4
20260904205455 17 270 16.1 0.0 0.00 1.85 0.00 75 1055.5
20260904205342 17 270 14.5 0.0 0.00 1.85 0.00 75 1055.5
20260904205229 17 270 14.5 0.0 0.00 1.85 0.00 76 1055.5
20260904205114 17 292 12.9 0.0 0.00 1.85 0.00 76 1055.5
20260904205005 17 315 8.0 0.0 0.00 1.85 0.00 76 1055.5
20260904204849 17 270 19.3 0.0 0.00 1.85 0.00 76 1055.5
20260904204737 17 292 19.3 0.0 0.00 1.85 0.00 76 1055.5
20260904204623 17 292 11.3 0.0 0.00 1.85 0.00 76 1055.5
20260904204512 17 292 9.7 0.0 0.00 1.85 0.00 76 1055.5
20260904204406 17 315 12.9 0.0 0.00 1.85 0.00 76 1055.5
20260904204300 17 202 0.0 0.0 0.00 1.85 0.00 76 1055.5
20260904204155 17 292 16.1 0.0 0.00 1.85 0.00 76 1055.5
20260904204034 17 292 12.9 0.0 0.00 1.85 0.00 76 1055.4
20260904203921 17 292 12.9 0.0 0.00 1.85 0.00 76 1055.4
20260904203808 17 292 9.7 0.0 0.00 1.85 0.00 76 1055.4
20260904203654 17 247 19.3 0.0 0.00 1.85 0.00 76 1055.3
20260904203533 17 270 4.8 0.0 0.00 1.85 0.00 76 1055.3
20260904203420 17 292 24.1 0.0 0.00 1.85 0.00 75 1055.2
20260904203301 17 315 12.9 0.0 0.00 1.85 0.00 75 1055.3
20260904203155 17 292 12.9 0.0 0.00 1.85 0.00 75 1055.2
20260904203049 18 292 8.0 0.0 0.00 1.85 0.00 75 1055.2
20260904202938 18 315 14.5 0.0 0.00 1.85 0.00 74 1055.2
20260904202831 18 270 4.8 0.0 0.00 1.85 0.00 74 1055.2
20260904202717 18 292 12.9 0.0 0.00 1.85 0.00 74 1055.3
20260904202607 18 225 9.7 0.0 0.00 1.85 0.00 73 1055.3
20260904202459 18 22 9.7 0.0 0.00 1.85 0.00 74 1055.2
20260904202340 18 270 19.3 0.0 0.00 1.85 0.00 74 1055.2
20260904202234 18 292 25.7 0.0 0.00 1.85 0.00 74 1055.1
20260904202121 18 247 12.9 0.0 0.00 1.85 0.00 74 1055.2
20260904202015 17 270 16.1 0.0 0.00 1.85 0.00 74 1055.2
20260904201910 17 292 11.3 0.0 0.00 1.85 0.00 74 1055.3
20260904201750 17 292 20.9 0.0 0.00 1.85 0.00 75 1055.3
20260904201645 17 292 12.9 0.0 0.00 1.85 0.00 75 1055.3
20260904201540 17 315 0.0 0.0 0.00 1.85 0.00 75 1055.2
20260904201426 17 292 8.0 0.0 0.00 1.85 0.00 75 1055.2
20260904201312 17 247 24.1 0.0 0.00 1.85 0.00 75 1055.3
20260904201152 17 315 9.7 0.0 0.00 1.85 0.00 75 1055.2
20260904201046 17 270 12.9 0.0 0.00 1.85 0.00 75 1055.2
20260904200926 18 292 9.7 0.0 0.00 1.85 0.00 75 1055.1
20260904200821 17 292 19.3 0.0 0.00 1.85 0.00 76 1055.1
20260904200716 18 292 19.3 0.0 0.00 1.85 0.00 77 1055.2
20260904200610 18 270 14.5 0.0 0.00 1.85 0.00 76 1055.0
20260904200441 18 315 4.8 0.0 0.00 1.85 0.00 76 1055.1
20260904200327 18 337 12.9 0.0 0.00 1.85 0.00 76 1055.1
20260904200217 18 292 24.1 0.0 0.00 1.85 0.00 76 1055.0
20260904200103 18 0 12.9 0.0 0.00 1.85 0.00 75 1055.0
20260904195957 18 270 4.8 0.0 0.00 1.85 0.00 75 1055.0
20260904195846 18 337 20.9 0.0 0.00 1.85 0.00 75 1055.0
20260904195739 18 315 11.3 0.0 0.00 1.85 0.00 75 1055.0
20260904195624 18 337 9.7 0.0 0.00 1.85 0.00 75 1055.0
20260904195512 18 292 9.7 0.0 0.00 1.85 0.00 75 1055.1
20260904195352 18 270 8.0 0.0 0.00 1.85 0.00 74 1055.0
20260904195246 18 337 6.4 0.0 0.00 1.85 0.00 74 1054.9
20260904195132 18 292 17.7 0.0 0.00 1.85 0.00 74 1055.0
20260904195012 18 292 9.7 0.0 0.00 1.85 0.00 74 1055.0
20260904194859 18 292 14.5 0.0 0.00 1.85 0.00 74 1055.0
20260904194745 18 315 20.9 0.0 0.00 1.85 0.00 74 1054.9
20260904194624 18 337 20.9 0.0 0.00 1.85 0.00 74 1054.9
20260904194511 18 315 9.7 0.0 0.00 1.85 0.00 74 1054.9
20260904194359 18 202 0.0 0.0 0.00 1.85 0.00 74 1054.9
20260904194252 18 337 11.3 0.0 0.00 1.85 0.00 74 1054.8
20260904194126 18 337 8.0 0.0 0.00 1.85 0.00 73 1054.7
20260904194018 18 292 12.9 0.0 0.00 1.85 0.00 74 1054.8
20260904193905 18 292 25.7 0.0 0.00 1.85 0.00 74 1054.8
20260904193746 18 270 17.7 0.0 0.00 1.85 0.00 75 1054.9
20260904193631 18 315 3.2 0.0 0.00 1.85 0.00 75 1054.9
20260904193518 18 315 22.5 0.0 0.00 1.85 0.00 75 1054.8
20260904193405 18 270 8.0 0.0 0.00 1.85 0.00 74 1054.7
20260904193252 18 337 4.8 0.0 0.00 1.85 0.00 74 1054.7
20260904193140 18 337 14.5 0.0 0.00 1.85 0.00 75 1054.6
20260904193033 18 315 12.9 0.0 0.00 1.85 0.00 74 1054.6
20260904192912 18 292 20.9 0.0 0.00 1.85 0.00 75 1054.6
20260904192801 18 270 19.3 0.0 0.00 1.85 0.00 75 1054.5
20260904192654 18 337 8.0 0.0 0.00 1.85 0.00 75 1054.5
20260904192541 18 270 12.9 0.0 0.00 1.85 0.00 75 1054.5
20260904192427 18 315 32.2 0.0 0.00 1.85 0.00 75 1054.6
20260904192306 18 315 12.9 0.0 0.00 1.85 0.00 75 1054.6
20260904192155 18 292 25.7 0.0 0.00 1.85 0.00 76 1054.5
20260904192048 18 247 17.7 0.0 0.00 1.85 0.00 76 1054.5
20260904191938 18 270 14.5 0.0 0.00 1.85 0.00 76 1054.5
20260904191830 17 337 22.5 0.0 0.00 1.85 0.00 76 1054.5
20260904191711 17 292 14.5 0.0 0.00 1.85 0.00 76 1054.5
20260904191606 17 315 16.1 0.0 0.00 1.85 0.00 76 1054.4
20260904191459 17 315 11.3 0.0 0.00 1.85 0.00 76 1054.5
20260904191356 17 337 24.1 0.0 0.00 1.85 0.00 76 1054.5
20260904191249 17 247 8.0 0.0 0.00 1.85 0.00 76 1054.5
20260904191128 17 315 17.7 0.0 0.00 1.85 0.00 76 1054.4
20260904191023 17 292 14.5 0.0 0.00 1.85 0.00 76 1054.4
20260904190917 17 270 19.3 0.0 0.00 1.85 0.00 76 1054.4
20260904190748 17 292 22.5 0.0 0.00 1.85 0.00 76 1054.4
20260904190635 17 270 6.4 0.0 0.00 1.85 0.00 76 1054.4
20260904190515 17 337 12.9 0.0 0.00 1.85 0.00 76 1054.4
20260904190411 17 292 12.9 0.0 0.00 1.85 0.00 76 1054.4
20260904190304 17 247 12.9 0.0 0.00 1.85 0.00 76 1054.4
20260904190151 17 292 6.4 0.0 0.00 1.85 0.00 76 1054.4
20260904190030 17 315 8.0 0.0 0.00 1.85 0.00 76 1054.3
20260904185917 17 292 32.2 0.0 0.00 1.85 0.00 76 1054.4
20260904185812 17 270 22.5 0.0 0.00 1.85 0.00 76 1054.3
20260904185700 17 337 0.0 0.0 0.00 1.85 0.00 76 1054.3
20260904185553 17 270 19.3 0.0 0.00 1.85 0.00 76 1054.4
20260904185440 17 337 4.8 0.0 0.00 1.85 0.00 76 1054.4
20260904185327 17 315 0.0 0.0 0.00 1.85 0.00 76 1054.3
20260904185222 17 315 4.8 0.0 0.00 1.85 0.00 76 1054.3
20260904185109 17 292 14.5 0.0 0.00 1.85 0.00 76 1054.3
20260904184958 17 270 17.7 0.0 0.00 1.85 0.00 76 1054.3
20260904184850 17 315 0.0 0.0 0.00 1.85 0.00 76 1054.3
20260904184722 17 315 11.3 0.0 0.00 1.85 0.00 76 1054.2
20260904184608 17 315 0.0 0.0 0.00 1.85 0.00 76 1054.2
20260904184455 17 270 30.6 0.0 0.00 1.85 0.00 76 1054.3
20260904184336 17 292 11.3 0.0 0.00 1.85 0.00 76 1054.3
20260904184221 17 292 9.7 0.0 0.00 1.85 0.00 75 1054.2
20260904184108 17 337 19.3 0.0 0.00 1.85 0.00 76 1054.2
20260904183939 17 292 12.9 0.0 0.00 1.85 0.00 76 1054.2
20260904183825 17 315 30.6 0.0 0.00 1.85 0.00 76 1054.2
20260904183704 17 292 8.0 0.0 0.00 1.85 0.00 76 1054.1
20260904183551 17 270 9.7 0.0 0.00 1.85 0.00 76 1054.1
20260904183438 17 270 19.3 0.0 0.00 1.85 0.00 76 1054.1
20260904183333 17 315 19.3 0.0 0.00 1.85 0.00 75 1054.2
20260904183220 17 292 6.4 0.0 0.00 1.85 0.00 75 1054.2
20260904183114 17 337 6.4 0.0 0.00 1.85 0.00 75 1054.2
20260904182953 17 292 25.7 0.0 0.00 1.85 0.00 76 1054.1
20260904182834 17 315 37.0 0.0 0.00 1.85 0.00 75 1054.1
20260904182719 17 315 8.0 0.0 0.00 1.85 0.00 75 1054.1
20260904182606 17 292 33.8 0.0 0.00 1.85 0.00 75 1054.0
20260904182453 17 292 19.3 0.0 0.00 1.85 0.00 75 1054.0
20260904182340 17 292 11.3 0.0 0.00 1.85 0.00 75 1054.1
20260904182234 17 292 22.5 0.0 0.00 1.85 0.00 75 1054.1
20260904182124 17 315 12.9 0.0 0.00 1.85 0.00 76 1054.0
20260904182018 17 292 32.2 0.0 0.00 1.85 0.00 76 1054.1
20260904181903 17 270 8.0 0.0 0.00 1.85 0.00 76 1054.0
20260904181749 17 0 0.0 0.0 0.00 1.85 0.00 76 1053.9
20260904181621 17 247 22.5 0.0 0.00 1.85 0.00 76 1054.0
20260904181508 17 292 17.7 0.0 0.00 1.85 0.00 76 1054.0
20260904181354 17 247 9.7 0.0 0.00 1.85 0.00 75 1054.0
20260904181236 17 337 19.3 0.0 0.00 1.85 0.00 75 1054.0
20260904181129 17 270 25.7 0.0 0.00 1.85 0.00 75 1054.0
20260904181024 17 0 14.5 0.0 0.00 1.85 0.00 75 1054.0
20260904180911 18 292 16.1 0.0 0.00 1.85 0.00 75 1053.9
20260904180805 18 0 24.1 0.0 0.00 1.85 0.00 76 1053.9
20260904180644 18 315 16.1 0.0 0.00 1.85 0.00 76 1053.9
20260904180531 18 270 9.7 0.0 0.00 1.85 0.00 76 1053.7
20260904180402 18 292 17.7 0.0 0.00 1.85 0.00 76 1053.8
20260904180249 18 247 6.4 0.0 0.00 1.85 0.00 76 1053.8
20260904180135 18 270 12.9 0.0 0.00 1.85 0.00 76 1053.8
20260904180024 18 315 0.0 0.0 0.00 1.85 0.00 76 1053.8
20260904175910 18 315 0.0 0.0 0.00 1.85 0.00 76 1053.8
20260904175807 18 315 25.7 0.0 0.00 1.85 0.00 76 1053.8
20260904175659 18 292 9.7 0.0 0.00 1.85 0.00 76 1053.7
20260904175546 18 270 6.4 0.0 0.00 1.85 0.00 75 1053.8
20260904175433 18 270 12.9 0.0 0.00 1.85 0.00 74 1053.7
20260904175328 18 292 8.0 0.0 0.00 1.85 0.00 74 1053.7
20260904175217 18 315 11.3 0.0 0.00 1.85 0.00 74 1053.7
20260904175110 18 315 25.7 0.0 0.00 1.85 0.00 75 1053.7
20260904175005 18 270 17.7 0.0 0.00 1.85 0.00 75 1053.8
20260904174853 18 247 12.9 0.0 0.00 1.85 0.00 74 1053.7
20260904174747 18 270 9.7 0.0 0.00 1.85 0.00 74 1053.5
20260904174633 18 292 11.3 0.0 0.00 1.85 0.00 73 1053.5
20260904174521 18 270 33.8 0.0 0.00 1.85 0.00 74 1053.5
20260904174416 18 315 0.0 0.0 0.00 1.85 0.00 74 1053.6
20260904174310 18 315 19.3 0.0 0.00 1.85 0.00 75 1053.5
20260904174206 18 337 9.7 0.0 0.00 1.85 0.00 75 1053.6
20260904174100 18 22 9.7 0.0 0.00 1.85 0.00 74 1053.5
20260904173933 18 292 20.9 0.0 0.00 1.85 0.00 75 1053.5
20260904173828 18 337 24.1 0.0 0.00 1.85 0.00 75 1053.5
20260904173721 18 315 11.3 0.0 0.00 1.85 0.00 75 1053.6
20260904173608 18 315 8.0 0.0 0.00 1.85 0.00 75 1053.6
20260904173455 18 0 20.9 0.0 0.00 1.85 0.00 75 1053.5
20260904173350 18 292 9.7 0.0 0.00 1.85 0.00 74 1053.5
20260904173244 18 292 22.5 0.0 0.00 1.85 0.00 74 1053.4
20260904173134 18 315 9.7 0.0 0.00 1.85 0.00 74 1053.5
20260904173026 18 292 16.1 0.0 0.00 1.85 0.00 74 1053.4
20260904172916 18 270 17.7 0.0 0.00 1.85 0.00 73 1053.4
20260904172808 18 292 20.9 0.0 0.00 1.85 0.00 74 1053.4
20260904172656 18 337 11.3 0.0 0.00 1.85 0.00 73 1053.4
20260904172550 18 292 29.0 0.0 0.00 1.85 0.00 74 1053.4
20260904172438 18 337 0.0 0.0 0.00 1.85 0.00 73 1053.3
20260904172330 18 315 17.7 0.0 0.00 1.85 0.00 72 1053.4
20260904172209 18 315 6.4 0.0 0.00 1.85 0.00 72 1053.3
20260904172056 18 292 4.8 0.0 0.00 1.85 0.00 72 1053.3
20260904171951 18 315 22.5 0.0 0.00 1.85 0.00 72 1053.3
20260904171846 18 270 0.0 0.0 0.00 1.85 0.00 72 1053.3
20260904171725 18 270 3.2 0.0 0.00 1.85 0.00 71 1053.3
20260904171620 18 270 19.3 0.0 0.00 1.85 0.00 71 1053.4
20260904171514 18 292 9.7 0.0 0.00 1.85 0.00 72 1053.4
20260904171402 18 270 11.3 0.0 0.00 1.85 0.00 72 1053.3
20260904171256 18 337 6.4 0.0 0.00 1.85 0.00 72 1053.3
20260904171143 18 337 17.7 0.0 0.00 1.85 0.00 72 1053.2
20260904171038 18 315 24.1 0.0 0.00 1.85 0.00 72 1053.3
20260904170923 18 22 0.0 0.0 0.00 1.85 0.00 71 1053.2
20260904170803 18 315 20.9 0.0 0.00 1.85 0.00 71 1053.1
20260904170649 18 292 9.7 0.0 0.00 1.85 0.00 73 1053.2
20260904170527 18 292 14.5 0.0 0.00 1.85 0.00 74 1053.3
20260904170417 18 292 9.7 0.0 0.00 1.85 0.00 74 1053.1
20260904170309 18 315 16.1 0.0 0.00 1.85 0.00 73 1053.1
20260904170156 18 292 0.0 0.0 0.00 1.85 0.00 73 1053.2
20260904170050 18 337 11.3 0.0 0.00 1.85 0.00 72 1053.1
20260904165945 18 337 9.7 0.0 0.00 1.85 0.00 71 1053.1
20260904165838 18 315 24.1 0.0 0.00 1.85 0.00 71 1053.1
20260904165718 18 292 8.0 0.0 0.00 1.85 0.00 71 1053.1
20260904165604 18 315 8.0 0.0 0.00 1.85 0.00 71 1053.0
20260904165451 18 270 9.7 0.0 0.00 1.85 0.00 72 1053.1
20260904165346 18 315 9.7 0.0 0.00 1.85 0.00 73 1053.0
20260904165235 18 0 9.7 0.0 0.00 1.85 0.00 73 1053.0
20260904165127 18 315 14.5 0.0 0.00 1.85 0.00 72 1053.0
20260904165007 18 315 11.3 0.0 0.00 1.85 0.00 72 1053.0
20260904164853 18 315 14.5 0.0 0.00 1.85 0.00 72 1053.0
20260904164733 18 292 33.8 0.0 0.00 1.85 0.00 72 1052.9
20260904164627 18 270 14.5 0.0 0.00 1.85 0.00 72 1052.9
20260904164516 18 337 30.6 0.0 0.00 1.85 0.00 72 1052.9
20260904164411 18 270 14.5 0.0 0.00 1.85 0.00 72 1052.9
20260904164304 18 0 0.0 0.0 0.00 1.85 0.00 72 1053.0
20260904164151 18 270 16.1 0.0 0.00 1.85 0.00 72 1053.0
20260904164047 18 292 9.7 0.0 0.00 1.85 0.00 72 1052.9
20260904163940 18 0 22.5 0.0 0.00 1.85 0.00 71 1052.9
20260904163828 18 292 8.0 0.0 0.00 1.85 0.00 71 1052.9
20260904163714 18 292 19.3 0.0 0.00 1.85 0.00 71 1052.9
20260904163602 18 315 33.8 0.0 0.00 1.85 0.00 72 1052.9
20260904163449 18 270 22.5 0.0 0.00 1.85 0.00 72 1053.0
20260904163327 18 315 24.1 0.0 0.00 1.85 0.00 71 1053.0
20260904163214 18 315 12.9 0.0 0.00 1.85 0.00 72 1052.9
20260904163101 18 315 17.7 0.0 0.00 1.85 0.00 71 1052.9
20260904162956 18 270 12.9 0.0 0.00 1.85 0.00 71 1052.8
20260904162837 18 315 6.4 0.0 0.00 1.85 0.00 71 1052.8
20260904162709 18 0 14.5 0.0 0.00 1.85 0.00 71 1052.8
20260904162556 18 315 3.2 0.0 0.00 1.85 0.00 71 1052.8
20260904162440 18 315 9.7 0.0 0.00 1.85 0.00 71 1052.7
20260904162301 18 180 9.7 0.0 0.00 1.85 0.00 71 1052.8
20260904162142 18 247 6.4 0.0 0.00 1.85 0.00 72 1052.8
20260904162027 18 270 11.3 0.0 0.00 1.85 0.00 72 1052.8
20260904161906 18 292 8.0 0.0 0.00 1.85 0.00 71 1052.8
20260904161801 18 292 12.9 0.0 0.00 1.85 0.00 71 1052.8
20260904161656 18 247 20.9 0.0 0.00 1.85 0.00 72 1052.8
20260904161535 18 247 29.0 0.0 0.00 1.85 0.00 72 1052.8
20260904161430 18 292 17.7 0.0 0.00 1.85 0.00 72 1052.9
20260904161319 18 337 16.1 0.0 0.00 1.85 0.00 71 1052.9
20260904161212 18 315 32.2 0.0 0.00 1.85 0.00 71 1052.7
20260904161106 18 270 25.7 0.0 0.00 1.85 0.00 72 1052.8
20260904160953 18 292 14.5 0.0 0.00 1.85 0.00 71 1052.9
20260904160849 18 315 4.8 0.0 0.00 1.85 0.00 71 1052.7
20260904160744 18 337 12.9 0.0 0.00 1.85 0.00 72 1052.7
20260904160631 18 315 9.7 0.0 0.00 1.85 0.00 72 1052.7
20260904160517 18 270 16.1 0.0 0.00 1.85 0.00 72 1052.8
20260904160412 18 292 11.3 0.0 0.00 1.85 0.00 72 1052.8
20260904160252 18 292 6.4 0.0 0.00 1.85 0.00 71 1052.7
20260904160146 18 270 12.9 0.0 0.00 1.85 0.00 71 1052.7
20260904160033 18 292 22.5 0.0 0.00 1.85 0.00 71 1052.8
20260904155922 18 292 11.3 0.0 0.00 1.85 0.00 72 1052.8
20260904155813 18 22 6.4 0.0 0.00 1.85 0.00 72 1052.7
20260904155703 18 292 22.5 0.0 0.00 1.85 0.00 72 1052.8
20260904155554 18 292 35.4 0.0 0.00 1.85 0.00 73 1052.7
20260904155438 18 315 16.1 0.0 0.00 1.85 0.00 73 1052.8
20260904155311 18 292 14.5 0.0 0.00 1.85 0.00 72 1052.8
20260904155203 18 292 14.5 0.0 0.00 1.85 0.00 72 1052.6
20260904155048 18 292 11.3 0.0 0.00 1.85 0.00 72 1052.7
20260904154918 18 270 16.1 0.0 0.00 1.85 0.00 72 1052.7
20260904154803 18 315 11.3 0.0 0.00 1.85 0.00 72 1052.7
20260904154646 18 337 25.7 0.0 0.00 1.85 0.00 72 1052.6
20260904154520 18 315 14.5 0.0 0.00 1.85 0.00 71 1052.6
20260904154415 18 270 19.3 0.0 0.00 1.85 0.00 72 1052.6
20260904154300 18 247 33.8 0.0 0.00 1.85 0.00 72 1052.6
20260904154138 19 270 19.3 0.0 0.00 1.85 0.00 73 1052.6
20260904154016 19 337 9.7 0.0 0.00 1.85 0.00 74 1052.5
20260904153847 19 337 14.5 0.0 0.00 1.85 0.00 75 1052.5
20260904153727 19 292 4.8 0.0 0.00 1.85 0.00 74 1052.6
20260904153623 19 315 27.4 0.0 0.00 1.85 0.00 75 1052.6
20260904153518 19 315 19.3 0.0 0.00 1.85 0.00 75 1052.5
20260904153412 19 270 30.6 0.0 0.00 1.85 0.00 75 1052.4
20260904153258 19 270 19.3 0.0 0.00 1.85 0.00 75 1052.3
20260904153144 19 315 11.3 0.0 0.00 1.85 0.00 75 1052.4
20260904153033 19 292 8.0 0.0 0.00 1.85 0.00 75 1052.3
20260904152921 19 0 8.0 0.0 0.00 1.85 0.00 75 1052.4
20260904152813 19 270 11.3 0.0 0.00 1.85 0.00 75 1052.3
20260904152653 19 270 9.7 0.0 0.00 1.85 0.00 75 1052.2
20260904152547 19 292 17.7 0.0 0.00 1.85 0.00 75 1052.2
20260904152442 19 337 11.3 0.0 0.00 1.85 0.00 75 1052.1
20260904152328 19 0 9.7 0.0 0.00 1.85 0.00 78 1052.2
20260904152200 19 0 17.7 0.0 0.00 1.85 0.00 78 1051.9
20260904152055 19 315 9.7 0.0 0.00 1.85 0.00 77 1051.9
20260904151933 19 292 8.0 0.0 0.00 1.85 0.00 76 1052.0
20260904151812 19 292 32.2 0.0 0.00 1.85 0.00 76 1052.0
20260904151646 19 292 27.4 0.0 0.00 1.85 0.00 76 1052.1
20260904151540 19 315 8.0 0.0 0.00 1.85 0.00 78 1052.1
20260904151433 19 315 6.4 0.0 0.00 1.85 0.00 78 1052.1
20260904151314 19 315 3.2 0.0 0.00 1.85 0.00 77 1052.0
20260904151200 19 292 20.9 0.0 0.00 1.85 0.00 77 1051.9
20260904151053 19 292 24.1 0.0 0.00 1.85 0.00 77 1052.0
20260904150933 19 337 8.0 0.0 0.00 1.85 0.00 77 1052.0
20260904150827 19 337 25.7 0.0 0.00 1.85 0.00 77 1052.1
20260904150715 19 270 12.9 0.0 0.00 1.85 0.00 78 1051.9
20260904150600 19 292 17.7 0.0 0.00 1.85 0.00 78 1051.8
20260904150439 19 292 17.7 0.0 0.00 1.85 0.00 79 1051.9
20260904150319 19 315 17.7 0.0 0.00 1.85 0.00 80 1051.9
20260904150216 19 270 3.2 0.0 0.00 1.85 0.00 80 1051.8
20260904150059 19 315 8.0 0.0 0.00 1.85 0.00 80 1051.8
20260904145938 19 270 183.5 0.0 0.00 1.85 0.00 79 1051.7
20260904145310 19 270 183.5 0.0 0.00 1.85 0.00 79 1051.8
20260904144646 19 270 183.5 0.0 0.00 1.85 0.00 81 1051.8
20260904144015 19 270 183.5 0.0 0.00 1.85 0.00 82 1051.5
20260904143345 19 270 183.5 0.0 0.00 1.85 0.00 82 1051.5
20260904142716 19 270 183.5 0.0 0.00 1.85 0.00 82 1051.3
20260904142044 19 270 183.5 0.0 0.00 1.85 0.00 83 1051.2
20260904141415 19 270 183.5 0.0 0.00 1.85 0.00 84 1051.1
20260904140745 19 270 183.5 0.0 0.00 1.85 0.00 85 1050.9
20260904140126 18 270 183.5 0.0 0.00 1.85 0.00 86 1050.8
20260904135541 18 270 183.5 0.0 0.00 1.85 0.00 86 1050.8
20260904134911 18 270 183.5 0.0 0.05 1.85 0.00 87 1050.7
20260904134241 18 270 183.5 0.0 0.05 1.85 0.00 87 1050.6
20260904133610 18 270 183.5 0.0 0.05 1.85 0.00 89 1050.5
20260904132917 18 270 183.5 0.0 0.05 1.85 0.00 91 1050.4
20260904132246 18 270 183.5 0.0 0.05 1.85 0.00 92 1050.5
20260904131637 17 270 183.5 0.0 0.05 1.85 0.00 92 1050.4
20260904130957 17 270 183.5 0.0 0.05 1.85 0.00 92 1050.5
20260904130349 17 270 183.5 0.0 0.05 1.85 0.00 92 1050.4
20260904125741 17 270 183.5 0.0 0.05 1.85 0.00 91 1050.3
20260904125119 17 270 183.5 0.0 0.00 1.80 0.00 89 1050.3
20260904124505 18 270 183.5 0.0 0.00 1.80 0.00 87 1050.3
20260904123827 18 270 183.5 0.0 0.00 1.80 0.00 87 1050.2
20260904123150 18 270 183.5 0.0 0.00 1.80 0.00 87 1050.2
20260904122519 18 270 183.5 0.0 0.00 1.80 0.00 88 1050.2
20260904121906 18 270 183.5 0.0 0.00 1.80 0.00 89 1049.9
20260904121227 18 270 183.5 0.0 0.00 1.80 0.00 90 1050.3
20260904120606 18 270 183.5 0.0 0.00 1.80 0.00 91 1050.0
20260904115944 18 270 183.5 0.0 0.00 1.80 0.00 92 1050.0
20260904115336 18 270 183.5 0.0 0.00 1.80 0.00 93 1050.1
20260904114721 18 270 183.5 0.0 0.00 1.80 0.00 93 1049.0
20260904114107 18 270 183.5 0.0 0.00 1.80 0.00 93 1049.0
20260904113454 18 270 183.5 0.0 0.00 1.80 0.00 92 1049.8
20260904112840 18 270 183.5 0.0 0.00 1.80 0.00 92 1049.7
20260904112226 18 270 183.5 0.0 0.00 1.80 0.00 92 1049.8
20260904111611 18 270 183.5 0.0 0.00 1.80 0.00 92 1050.2
20260904111005 18 270 183.5 0.0 0.00 1.80 0.00 92 1050.3
20260904110327 18 270 183.5 0.0 0.00 1.80 0.00 92 1050.4
20260904105656 18 270 183.5 0.0 0.00 1.80 0.00 93 1050.0
20260904105035 18 270 183.5 0.0 0.00 1.80 0.00 93 1049.9
20260904104412 18 270 183.5 0.0 0.00 1.80 0.00 94 1049.6
20260904103752 18 270 183.5 0.0 0.00 1.80 0.00 94 1049.8
20260904103146 18 270 183.5 0.0 0.00 1.80 0.00 94 1049.9
20260904102531 18 270 183.5 0.0 0.00 1.80 0.00 94 1050.1
20260904101926 17 270 183.5 0.0 0.00 1.80 0.00 95 1049.8
20260904101303 17 270 183.5 0.0 0.10 1.80 0.00 95 1049.8
20260904100706 17 270 183.5 0.0 0.15 1.80 0.00 95 1049.7
20260904100036 17 270 183.5 0.0 0.15 1.80 0.00 95 1049.8
20260904095422 17 270 183.5 0.0 0.15 1.85 0.00 95 1049.8
20260904094802 17 270 183.5 0.0 0.20 1.85 0.00 95 1049.8
20260904094203 17 270 183.5 0.0 0.20 1.85 0.00 95 1049.7
20260904093558 18 270 183.5 0.0 0.20 1.85 0.00 95 1049.9
20260904093017 18 270 183.5 0.0 0.25 1.85 0.00 94 1049.8
20260904092419 18 270 183.5 0.0 0.25 1.85 0.00 95 1049.6
20260904091757 18 270 183.5 0.0 0.25 1.80 0.00 95 1048.9
20260904091152 18 270 183.5 0.0 0.15 1.70 0.00 95 1048.7
20260904090529 18 270 183.5 0.0 0.20 1.70 0.00 95 1048.9
20260904085907 18 270 183.5 0.0 0.25 1.70 0.00 95 1049.0
20260904085310 18 270 183.5 0.0 0.25 1.65 0.00 95 1048.8
20260904084657 18 270 183.5 0.0 0.25 1.65 0.00 95 1048.9
20260904084042 18 270 183.5 0.0 0.30 1.65 0.00 94 1048.9
20260904083445 18 270 183.5 0.0 0.36 1.65 0.00 94 1049.1
20260904082847 18 270 183.5 0.0 0.36 1.60 0.00 94 1049.1
20260904082234 18 270 183.5 0.0 0.36 1.55 0.00 94 1048.9
20260904081605 17 270 183.5 0.0 0.36 1.55 0.00 94 1048.9
20260904080951 17 270 183.5 0.0 0.41 1.55 0.00 94 1049.0
20260904080321 17 270 183.5 0.0 0.79 1.50 0.00 94 1049.4
20260904075658 17 270 183.5 0.0 0.84 1.40 0.00 94 1049.5
20260904075021 17 270 183.5 0.0 0.94 1.40 0.00 94 1049.5
20260904074350 17 270 183.5 0.0 1.04 1.35 0.00 93 1049.6
20260904073721 17 270 183.5 0.0 1.04 1.30 0.00 93 1049.9
20260904073050 17 270 183.5 0.0 1.09 1.24 0.00 93 1050.0
20260904072421 17 270 183.5 0.0 1.04 1.19 0.00 93 1050.2
20260904071751 17 270 183.5 0.0 1.09 1.19 0.00 93 1050.4
20260904071121 17 270 183.5 0.0 0.99 1.09 0.00 93 1050.5
20260904070451 17 270 183.5 0.0 0.66 0.79 0.00 93 1051.0
20260904065820 17 270 183.5 0.0 0.46 0.56 0.00 92 1050.7
20260904065151 17 270 183.5 0.0 0.41 0.46 0.00 92 1050.5
20260904064520 17 270 183.5 0.0 0.30 0.36 0.00 92 1050.8
20260904063851 17 270 183.5 0.0 0.20 0.25 0.00 91 1050.7
20260904063233 17 270 183.5 0.0 0.10 0.15 0.00 90 1050.9
20260904062604 18 270 183.5 0.0 0.10 0.15 0.00 90 1050.7
20260904061949 18 270 183.5 0.0 0.05 0.10 0.00 90 1051.4
20260904061318 18 270 183.5 0.0 0.05 0.10 0.00 90 1051.2
20260904060648 18 270 183.5 0.0 0.05 0.10 0.00 92 1051.2
20260904060033 18 270 183.5 0.0 0.05 0.10 0.00 92 1051.4
20260904055426 18 270 183.5 0.0 0.05 0.10 0.00 92 1051.5
20260904054830 18 270 183.5 0.0 0.00 0.05 0.00 92 1051.7
20260904054227 18 270 183.5 0.0 0.00 0.05 0.00 92 1051.9
20260904053607 18 270 183.5 0.0 0.00 0.05 0.00 92 1051.9
20260904052948 18 270 183.5 0.0 0.00 0.05 0.00 91 1052.0
20260904052346 18 270 183.5 0.0 0.00 0.05 0.00 91 1051.9
20260904051759 18 270 183.5 0.0 0.00 0.05 0.00 91 1051.9
20260904051158 18 270 183.5 0.0 0.00 0.05 0.00 91 1051.9
20260904050542 18 270 183.5 0.0 0.00 0.05 0.00 90 1052.1
20260904045937 18 270 14.5 0.0 0.00 0.05 0.00 90 1052.2
20260904045824 18 292 9.7 0.0 0.00 0.05 0.00 90 1052.0
20260904045721 18 270 9.7 0.0 0.00 0.05 0.00 90 1052.1
20260904045615 18 247 6.4 0.0 0.00 0.05 0.00 90 1052.2
20260904045509 18 292 9.7 0.0 0.00 0.05 0.00 90 1052.3
20260904045403 18 315 16.1 0.0 0.00 0.05 0.00 90 1052.3
20260904045258 18 270 19.3 0.0 0.00 0.05 0.00 90 1052.3
20260904045145 18 270 9.7 0.0 0.00 0.05 0.00 89 1052.2
20260904045040 18 270 19.3 0.0 0.00 0.05 0.00 89 1052.1
20260904044928 18 270 14.5 0.0 0.00 0.05 0.00 89 1052.1
20260904044821 19 292 20.9 0.0 0.00 0.05 0.00 89 1052.0
20260904044707 19 292 14.5 0.0 0.00 0.05 0.00 89 1052.1
20260904044554 19 270 30.6 0.0 0.00 0.05 0.00 89 1052.1
20260904044447 18 292 12.9 0.0 0.00 0.05 0.00 89 1052.2
20260904044342 18 270 4.8 0.0 0.00 0.05 0.00 89 1052.2
20260904044236 19 270 20.9 0.0 0.00 0.05 0.00 89 1052.2
20260904044122 19 270 9.7 0.0 0.00 0.05 0.00 89 1052.2
20260904043959 19 225 4.8 0.0 0.00 0.05 0.00 89 1052.3
20260904043845 19 270 24.1 0.0 0.00 0.05 0.00 89 1052.3
20260904043722 19 247 12.9 0.0 0.00 0.05 0.00 89 1052.3
20260904043610 19 247 24.1 0.0 0.00 0.05 0.00 89 1052.3
20260904043455 19 270 17.7 0.0 0.00 0.05 0.00 89 1052.3
20260904043336 19 247 11.3 0.0 0.00 0.05 0.00 89 1052.3
20260904043225 19 270 16.1 0.0 0.00 0.05 0.00 88 1052.4
20260904043117 19 270 9.7 0.0 0.00 0.05 0.00 88 1052.4
20260904042958 19 202 3.2 0.0 0.00 0.05 0.00 88 1052.3
20260904042853 19 180 11.3 0.0 0.00 0.05 0.00 88 1052.5
20260904042746 19 247 11.3 0.0 0.00 0.05 0.00 88 1052.4
20260904042626 19 270 11.3 0.0 0.00 0.05 0.00 88 1052.4
20260904042520 19 270 17.7 0.0 0.00 0.05 0.00 88 1052.4
20260904042407 19 247 14.5 0.0 0.00 0.05 0.00 88 1052.5
20260904042305 19 270 20.9 0.0 0.00 0.05 0.00 88 1052.5
20260904042140 19 202 12.9 0.0 0.00 0.05 0.00 88 1052.5
20260904042019 19 247 25.7 0.0 0.00 0.05 0.00 88 1052.5
20260904041905 19 270 14.5 0.0 0.00 0.05 0.00 88 1052.5
20260904041756 19 247 17.7 0.0 0.00 0.05 0.00 88 1052.6
20260904041649 19 270 24.1 0.0 0.00 0.05 0.00 88 1052.6
20260904041535 19 270 19.3 0.0 0.00 0.05 0.00 88 1052.7
20260904041415 19 270 4.8 0.0 0.00 0.05 0.00 88 1052.6
20260904041307 19 202 19.3 0.0 0.00 0.05 0.00 88 1052.6
20260904041156 19 292 14.5 0.0 0.00 0.05 0.00 88 1052.6
20260904041050 19 270 22.5 0.0 0.00 0.05 0.00 88 1052.6
20260904040928 19 247 9.7 0.0 0.00 0.05 0.00 88 1052.5
20260904040810 19 270 14.5 0.0 0.00 0.05 0.00 88 1052.5
20260904040702 19 270 12.9 0.0 0.00 0.05 0.00 88 1052.6
20260904040541 19 247 6.4 0.0 0.00 0.05 0.00 88 1052.6
20260904040421 19 270 14.5 0.0 0.00 0.05 0.00 88 1052.6
20260904040315 19 225 19.3 0.0 0.00 0.05 0.00 88 1052.7
20260904040205 19 270 11.3 0.0 0.00 0.05 0.00 88 1052.8
20260904040057 19 202 3.2 0.0 0.00 0.05 0.00 88 1052.7
20260904035943 19 202 12.9 0.0 0.00 0.05 0.00 88 1052.7
20260904035824 19 247 11.3 0.0 0.00 0.05 0.00 88 1052.7
20260904035718 19 247 3.2 0.0 0.00 0.05 0.00 88 1052.7
20260904035604 19 225 9.7 0.0 0.00 0.05 0.00 88 1052.7
20260904035452 19 247 8.0 0.0 0.00 0.05 0.00 88 1052.7
20260904035345 19 247 20.9 0.0 0.00 0.05 0.00 88 1052.7
20260904035233 19 247 6.4 0.0 0.00 0.05 0.00 88 1052.7
20260904035121 19 225 4.8 0.0 0.00 0.05 0.00 88 1052.7
20260904035007 19 270 12.9 0.0 0.00 0.05 0.00 88 1052.7
20260904034853 19 225 12.9 0.0 0.00 0.05 0.00 88 1052.7
20260904034539 19 157 183.5 0.0 0.00 0.05 0.00 89 1052.8
20260904033909 19 157 183.5 0.0 0.00 0.05 0.00 90 1052.8
20260904033247 19 157 183.5 0.0 0.00 0.05 0.00 91 1052.9
20260904032641 19 157 183.5 0.0 0.00 0.05 0.00 92 1053.0
20260904032009 18 157 183.5 0.0 0.00 0.05 0.00 92 1053.2
20260904031407 18 157 183.5 0.0 0.00 0.05 0.00 92 1053.2
20260904030753 18 157 183.5 0.0 0.00 0.05 0.00 93 1053.3
20260904030142 18 157 183.5 0.0 0.00 0.05 0.00 93 1053.5
20260904025542 18 157 183.5 0.0 0.00 0.05 0.00 93 1053.4
20260904024920 18 157 183.5 0.0 0.00 0.05 0.00 93 1053.6
20260904024314 18 157 183.5 0.0 0.00 0.05 0.00 93 1053.7
20260904023644 18 157 183.5 0.0 0.00 0.05 0.00 93 1053.6
20260904023024 18 157 183.5 0.0 0.00 0.05 0.00 93 1053.7
20260904022401 18 157 183.5 0.0 0.00 0.05 0.00 93 1054.0
20260904021739 18 157 183.5 0.0 0.00 0.05 0.00 93 1054.3
20260904021117 18 157 183.5 0.0 0.00 0.05 0.00 93 1054.2
20260904020504 18 157 183.5 0.0 0.00 0.05 0.00 93 1054.2
20260904015905 18 157 183.5 0.0 0.00 0.05 0.00 93 1054.3
20260904015244 18 157 183.5 0.0 0.00 0.05 0.00 93 1054.3